Regional Weather Roundup
Issued by NWS

Home | Current Version | Previous Version | Graphics & Text | Print | Product List | Glossary On
Versions: 1 2 3 4 5 6 7 8 9 10 11 12 13 14 15 16 17 18 19 20 21 22 23 24 25 26 27 28 29 30 31 32 33 34 35 36 37 38 39 40 41 42 43 44 45 46 47 48 49 50
000
ASUS43 KLMK 281110
RWRKY
KENTUCKY REGIONAL WEATHER ROUNDUP
NATIONAL WEATHER SERVICE LOUISVILLE KY
700 AM EDT TUE APR 28 2015

NOTE "FAIR" INDICATES FEW OR NO CLOUDS BELOW 12,000 FEET
WITH NO SIGNIFICANT WEATHER AND/OR OBSTRUCTIONS TO VISIBILITY.

KYZ001>023-026-027-061>063-070>075-281200-
WESTERN AND SOUTH CENTRAL KENTUCKY

CITY           SKY/WX    TMP DP  RH WIND       PRES   REMARKS
PADUCAH        CLEAR     43  38  82 NE5       30.04R
HENDERSON      CLEAR     46  37  71 NE8       30.07R
OWENSBORO      CLEAR     46  40  79 NE7       30.07R
HOPKINSVILLE   FAIR      43  39  86 N8        30.01S
BOWLING GREEN  CLEAR     43  37  79 N3        30.03R
GLASGOW        CLEAR     42  37  83 NE3       30.03R
$$

KYZ024-025-028>034-038-045-046-053-281200-
NORTH CENTRAL KENTUCKY

CITY           SKY/WX    TMP DP  RH WIND       PRES   REMARKS
LOUISVILLE/SDF PTCLDY    44  38  79 NE7       30.08R
LOUISVILLE/LOU CLEAR     43  37  79 N5        30.09R
FORT KNOX      CLEAR     44  37  77 NE6       30.05R
$$

KYZ035>037-039>044-047>052-055>060-089>105-281200-
NORTHEAST KENTUCKY

CITY           SKY/WX    TMP DP  RH WIND       PRES   REMARKS
LEXINGTON      CLEAR     37  34  89 NE9       30.06S WCI  30
COVINGTON      CLEAR     41  36  82 NE5       30.10R
FRANKFORT      CLEAR     41  35  79 NE5       30.06S
$$

KYZ054-064>069-076>088-106>120-281200-
SOUTHEAST KENTUCKY

CITY           SKY/WX    TMP DP  RH WIND       PRES   REMARKS
JACKSON        CLEAR     39  33  79 CALM      30.03S
LONDON         CLEAR     43  33  68 NE3       30.02S
SOMERSET       CLEAR     41  34  75 NE5       30.04R
MIDDLESBORO    CLEAR     36  36 100 CALM      30.02R
MONTICELLO     SUNNY     41  37  85 CALM      30.05R
$$




USA.gov is the U.S. government's official web portal to all federal, state and local government web resources and services.